User: anonymous   Login
Location: Clinton NY
(43.0598°N, 75.3602°W)
Time: 17:39:26
(UTC-04:00)
Language:

Cosmos-2242 - Orbit

View from above orbital plane
View from above orbital plane
View from above satellite
View from above satellite

Ground track
Ground track

The orbit data is extracted from the following two-line orbital elements,

1 22626U 93024A   17232.83946845  .00000203  00000-0  19590-4 0  9991
2 22626  82.5245 340.8661 0017515 265.7305  94.1911 14.87685691315763
Epoch (UTC): 20 August 2017 20:08:50
Eccentricity: 0.0017515
inclination: 82.5245°
perigee height: 593 km
apogee height: 617 km
right ascension of ascending node: 340.8661°
argument of perigee: 265.7305°
revolutions per day: 14.87685691
mean anomaly at epoch: 94.1911°
orbit number at epoch: 31576

The dashed part of the orbit path shows where the satellite is in the earth's shadow,  

DLR